Tracking 19485 objects as of 22-Jan-2019
HD Live streaming from Space Station
objects crossing your sky now

COSMOS 1624

Track COSMOS 1624 now!
10-day predictions
COSMOS 1624 is classified as:


NORAD ID: 15482
Int'l Code: 1985-006A
Perigee: 777.5 km
Apogee: 800.2 km
Inclination: 74.0 °
Period: 100.5 minutes
Semi major axis: 7159 km
RCS: 2.2289 m2 (large)
Launch date: January 17, 1985
Source: Commonwealth of Independent States (former USSR) (CIS)
Launch site: PLESETSK MISSILE AND SPACE COMPLEX (PKMTR)
aabbcc
Your satellite tracking list
Your tracking list is empty




NASA's NSSDC Master Catalog

Two Line Element Set (TLE):
1 15482U 85006A   19020.72105295 +.00000009 +00000-0 +12839-4 0  9998
2 15482 074.0426 094.9059 0015807 278.2948 211.6737 14.33002165776789
Source of the keplerian elements: AFSPC